Ignacio, CO

5:31 AM MDT on July 26, 2016 (GMT -0600)
Durango-La Plata County

Weather History for KDRO - August, 2015

Change the Weather History Date:

Sunday, August 2, 2015

  Actual Average Record
Temperature  
Mean Temperature 68 °F 69 °F  
Max Temperature 80 °F 85 °F 94 °F (1972)
Min Temperature 55 °F 54 °F 40 °F (1973)
Degree Days  
Heating Degree Days 0 0  
Month to date heating degree days 0 0  
Since 1 June heating degree days 96 125  
Since 1 July heating degree days 15 10  
Cooling Degree Days 3 4  
Month to date cooling degree days 7 9  
Year to date cooling degree days 161 160  
Since 1 June cooling degree days 161 159  
Growing Degree Days 17 (Base 50)    
Moisture  
Dew Point 53 °F    
Average Humidity 62    
Maximum Humidity 86    
Minimum Humidity 37    
Precipitation  
Precipitation 0.06 in 0.08 in 1.08 in (2003)
Month to date precipitation 0.06 0.16  
Year to date precipitation 10.92 7.95  
Sea Level Pressure  
Sea Level Pressure 30.05 in    
Wind  
Wind Speed 6 mph (NNE)    
Max Wind Speed 24 mph    
Max Gust Speed 29 mph    
Visibility 10 miles    
Events Rain , Thunderstorm    
T = Trace of Precipitation, MM = Missing Value Source: NWS Daily Summary

Daily Weather History Graph

Daily Weather History Graph

Search for Another Location

Airport or City:

Trip Planner

Search our weather history database for the weather conditions in past years. The results will help you decide how hot, cold, wet, or windy it might be!

Date:

Astronomy

Aug. 02, 2015 Rise Set
Actual Time 6:16 AM MDT 8:17 PM MDT
Civil Twilight 5:47 AM MDT 8:46 PM MDT
Nautical Twilight 5:12 AM MDT 9:20 PM MDT
Astronomical Twilight 4:35 AM MDT 9:58 PM MDT
Moon 9:50 PM MDT (8/2) 8:51 AM MDT (8/2)
Length of Visible Light 14h 58m
Length of Day
14h 00m
Waning Gibbous, 92% of the Moon is Illuminated
Aug 2
Waning Gibbous
Aug 6
Last Quarter
Aug 14
New
Aug 22
First Quarter
Aug 29
Full

Hourly Weather History & Observations

Time (MDT) Temp. Dew Point Humidity Pressure Visibility Wind Dir Wind Speed Gust Speed Precip Events Conditions
12:53 AM 60.1 °F 55.9 °F 86% 30.01 in 10.0 mi Calm Calm - N/A   Clear
1:53 AM 60.1 °F 55.0 °F 83% 30.00 in 10.0 mi Calm Calm - N/A   Clear
2:53 AM 59.0 °F 54.0 °F 83% 30.03 in 10.0 mi ENE 3.5 mph - N/A   Clear
3:53 AM 57.0 °F 54.0 °F 89% 30.01 in 10.0 mi NNE 4.6 mph - N/A   Clear
4:53 AM 57.0 °F 53.1 °F 87% 30.00 in 10.0 mi Calm Calm - N/A   Clear
5:53 AM 55.0 °F 52.0 °F 89% 30.03 in 10.0 mi Calm Calm - N/A   Partly Cloudy
6:53 AM 57.0 °F 53.1 °F 87% 30.03 in 10.0 mi Calm Calm - N/A   Overcast
7:53 AM 59.0 °F 52.0 °F 78% 30.03 in 10.0 mi Calm Calm - N/A   Clear
8:53 AM 64.0 °F 53.1 °F 67% 30.04 in 10.0 mi Calm Calm - N/A   Clear
9:53 AM 66.0 °F 54.0 °F 65% 30.04 in 10.0 mi Calm Calm - N/A   Partly Cloudy
10:53 AM 71.1 °F 53.1 °F 53% 30.02 in 10.0 mi North 5.8 mph - N/A   Clear
11:53 AM 73.0 °F 53.1 °F 49% 29.99 in 10.0 mi Calm Calm - N/A   Partly Cloudy
12:53 PM 75.0 °F 52.0 °F 44% 29.97 in 10.0 mi NE 8.1 mph - N/A   Scattered Clouds
1:53 PM 79.0 °F 50.0 °F 36% 29.93 in 10.0 mi Variable 6.9 mph - N/A   Partly Cloudy
2:53 PM 77.0 °F 50.0 °F 39% 29.92 in 10.0 mi Variable 4.6 mph - N/A   Overcast
3:53 PM 79.0 °F 50.0 °F 36% 29.91 in 10.0 mi SW 11.5 mph 18.4 mph N/A Thunderstorm Thunderstorm
4:38 PM 79.0 °F 51.1 °F 38% 30.16 in 10.0 mi West 15.0 mph 23.0 mph N/A   Scattered Clouds
4:53 PM 78.1 °F 51.1 °F 39% 29.90 in 10.0 mi West 12.7 mph - N/A   Mostly Cloudy
5:53 PM 75.0 °F 52.0 °F 44% 29.93 in 10.0 mi WSW 15.0 mph - N/A   Mostly Cloudy
6:12 PM 72.0 °F 55.0 °F 55% 30.19 in 10.0 mi WSW 6.9 mph - 0.00 in Rain , Thunderstorm Light Rain
6:22 PM 64.0 °F 55.0 °F 73% 30.18 in 10.0 mi ENE 13.8 mph 24.2 mph 0.00 in Rain , Thunderstorm Light Thunderstorms and Rain
6:37 PM 60.1 °F 55.0 °F 83% 30.20 in 10.0 mi ENE 20.7 mph 28.8 mph 0.00 in Rain , Thunderstorm Light Rain
6:53 PM 60.1 °F 54.0 °F 80% 30.01 in 10.0 mi ENE 17.3 mph 26.5 mph 0.00 in Rain , Thunderstorm Light Rain
7:02 PM 60.1 °F 54.0 °F 80% 30.20 in 10.0 mi ENE 18.4 mph - 0.00 in   Mostly Cloudy
7:46 PM 59.0 °F 55.0 °F 87% 30.22 in 6.0 mi NE 12.7 mph - 0.04 in Rain , Thunderstorm Light Rain
7:53 PM 59.0 °F 55.0 °F 87% 30.03 in 10.0 mi NNE 13.8 mph - 0.04 in Rain , Thunderstorm Light Rain
8:01 PM 59.0 °F 55.0 °F 87% 30.22 in 10.0 mi NNE 12.7 mph - 0.00 in   Overcast
8:49 PM 59.0 °F 55.4 °F 88% 30.22 in 10.0 mi NNE 19.6 mph - 0.00 in Rain Light Rain
8:53 PM 59.0 °F 55.0 °F 87% 30.01 in 10.0 mi NNE 18.4 mph - 0.00 in Rain Light Rain
9:53 PM 59.0 °F 55.0 °F 87% 30.03 in 10.0 mi North 9.2 mph - 0.00 in   Mostly Cloudy
10:53 PM 60.1 °F 54.0 °F 80% 30.02 in 10.0 mi Calm Calm - N/A   Partly Cloudy
11:53 PM 59.0 °F 55.9 °F 90% 30.01 in 10.0 mi East 4.6 mph - 0.01 in Rain Light Rain